Weather reports worldwide

Advertisment
Capo Mele, Italy (16153): temperature & dewpoint: 11.07.2019 07:00:00 - 17.07.2019 07:00:00 (CEST)Capo Mele, Italy (16153): wind speed: 11.07.2019 07:00:00 - 17.07.2019 07:00:00 (CEST)Capo Mele, Italy (16153): wind direction: 11.07.2019 07:00:00 - 17.07.2019 07:00:00 (CEST)Capo Mele, Italy (16153): reduced air pressure: 11.07.2019 07:00:00 - 17.07.2019 07:00:00 (CEST)Capo Mele, Italy (16153): visibility: 11.07.2019 07:00:00 - 17.07.2019 07:00:00 (CEST)Capo Mele, Italy (16153): sunshine duration: 11.07.2019 07:00:00 - 17.07.2019 07:00:00 (CEST)
Date & Time tt [°C] td [°C] ff [km/h] ff [kn] dd ppp [hPa] vv [km] sd [min]
17.07.2019 07:00:00 20,4 15,2 0 0 N 1013,6 20 -
17.07.2019 06:00:00 20,8 14,7 0 0 N 1013,6 20 -
17.07.2019 05:00:00 21,0 14,4 0 0 N 1013,6 40 -
17.07.2019 04:00:00 21,0 14,9 0 0 N 1013,7 40 -
17.07.2019 03:00:00 22,8 16,1 0 0 N 1013,5 20 -
17.07.2019 02:00:00 23,0 12,6 0 0 N 1013,4 20 -
17.07.2019 01:00:00 23,0 10,8 8 4 WNW 1013,4 20 -
17.07.2019 00:00:00 22,4 11,5 9 5 WNW 1013,4 20 -
16.07.2019 23:00:00 22,4 16,2 9 5 W 1013,4 20 -
16.07.2019 22:00:00 23,0 16,5 21 11 W 1013,4 30 -
16.07.2019 21:00:00 24,0 15,0 22 12 W 1013,3 20 18
16.07.2019 20:00:00 25,0 15,4 22 12 SW 1013,2 20 60
16.07.2019 19:00:00 26,0 15,1 18 10 SSW 1013,1 20 60
16.07.2019 18:00:00 25,8 12,6 15 8 SSW 1013,5 20 60
16.07.2019 17:00:00 26,2 14,0 15 8 S 1014,1 40 60
16.07.2019 16:00:00 26,6 16,0 15 8 E 1014,1 40 60
16.07.2019 15:00:00 25,8 14,3 5 3 NE 1014,2 40 60
16.07.2019 14:00:00 25,8 13,7 5 3 NNE 1014,2 40 60
16.07.2019 13:00:00 25,0 14,2 5 3 NE 1014,2 20 60
16.07.2019 12:00:00 24,8 14,3 9 5 NE 1014,3 40 60
16.07.2019 11:00:00 24,0 12,6 9 5 NNE 1014,3 20 60
16.07.2019 10:00:00 24,2 9,4 9 5 NE 1014,3 35 60
16.07.2019 09:00:00 23,2 8,5 11 6 NE 1013,0 35 60
16.07.2019 08:00:00 21,2 7,8 11 6 NNE 1012,4 20 18
16.07.2019 07:00:00 21,0 9,0 15 8 NNE 1012,2 35 -
16.07.2019 06:00:00 20,8 8,1 18 10 NE 1012,1 20 -
16.07.2019 05:00:00 20,8 8,8 22 12 NNE 1012,4 20 -
16.07.2019 04:00:00 20,8 9,1 29 16 NNE 1012,5 20 -
16.07.2019 03:00:00 20,8 9,4 26 14 NNE 1011,5 20 -
16.07.2019 02:00:00 20,8 9,7 29 16 NNE 1011,3 20 -
16.07.2019 01:00:00 - - - - - - - -
16.07.2019 00:00:00 20,4 9,3 29 16 NNE 1011,0 20 -
15.07.2019 23:00:00 20,0 9,9 29 16 NNE 1010,6 35 -
15.07.2019 22:00:00 19,8 10,2 29 16 NNE 1009,6 20 -
15.07.2019 21:00:00 19,4 12,4 34 18 NE 1010,5 20 0
15.07.2019 20:00:00 18,2 12,0 37 20 ENE 1009,2 20 0
15.07.2019 19:00:00 17,4 13,5 37 20 ENE 1009,3 10 0
15.07.2019 18:00:00 16,8 13,9 28 15 E 1008,8 4,0 0
15.07.2019 17:00:00 16,0 13,3 37 20 SSE 1008,9 4,0 0
15.07.2019 16:00:00 15,4 13,3 46 25 SSE 1009,0 4,0 0
15.07.2019 15:00:00 15,4 12,4 37 20 SSE 1019,0 4,0 0
15.07.2019 14:00:00 15,4 12,4 37 20 SSE 1008,3 4,0 0
15.07.2019 13:00:00 15,8 12,0 28 15 ESE 1007,7 4,0 0
15.07.2019 12:00:00 16,0 13,1 28 15 ESE 1006,3 4,0 0
15.07.2019 11:00:00 16,0 14,0 28 15 ESE 1006,9 4,0 0
15.07.2019 10:00:00 16,6 16,0 28 15 ESE 1006,8 4,0 0
15.07.2019 09:00:00 18,0 16,3 9 5 NE 1006,4 2,0 0
15.07.2019 08:00:00 20,2 13,9 8 4 NE 1005,5 20 0
15.07.2019 07:00:00 20,0 13,9 8 4 NNE 1005,6 20 -
15.07.2019 06:00:00 20,4 13,6 8 4 NNE 1006,3 20 -
15.07.2019 05:00:00 20,8 13,5 5 3 NNE 1006,6 20 -
15.07.2019 04:00:00 21,0 13,4 8 4 NE 1007,4 20 -
15.07.2019 03:00:00 21,0 13,2 5 3 NNE 1007,5 20 -
15.07.2019 02:00:00 21,0 13,4 8 4 NE 1007,9 25 -
15.07.2019 01:00:00 21,4 13,6 8 4 NE 1008,2 20 -
15.07.2019 00:00:00 22,8 11,5 5 3 NNE 1008,2 25 -
14.07.2019 23:00:00 23,0 12,0 8 4 NE 1007,8 25 -
14.07.2019 22:00:00 23,8 15,8 5 3 NE 1007,8 20 -
14.07.2019 21:00:00 24,2 16,0 8 4 NNE 1007,6 20 0
14.07.2019 20:00:00 24,8 16,5 8 4 NNE 1007,9 20 0
14.07.2019 19:00:00 25,8 16,7 11 6 NE 1008,0 20 36
14.07.2019 18:00:00 27,8 17,9 11 6 NE 1008,4 35 60
14.07.2019 17:00:00 28,4 17,6 15 8 NNE 1008,8 20 54
14.07.2019 16:00:00 28,4 17,0 15 8 NNE 1009,0 35 60
14.07.2019 15:00:00 29,2 18,0 15 8 NNE 1009,1 35 60
14.07.2019 14:00:00 30,4 20,0 15 8 NE 1009,6 20 60
14.07.2019 13:00:00 29,8 20,4 15 8 NNE 1009,9 20 60
14.07.2019 12:00:00 29,6 18,7 15 8 NNE 1009,9 20 60
14.07.2019 11:00:00 29,2 18,7 18 10 NNE 1009,9 35 48
14.07.2019 10:00:00 28,0 17,5 0 0 N 1009,9 20 54
14.07.2019 09:00:00 25,6 14,7 8 4 NNE 1009,9 35 42
14.07.2019 08:00:00 23,4 15,7 5 3 NNE 1009,7 20 6
14.07.2019 07:00:00 23,0 18,1 0 0 N 1009,3 25 -
14.07.2019 06:00:00 23,2 17,2 5 3 NNE 1009,3 20 -
14.07.2019 05:00:00 23,4 15,5 5 3 NE 1009,3 20 -
14.07.2019 04:00:00 24,8 15,7 5 3 NE 1010,1 30 -
14.07.2019 03:00:00 24,0 18,0 0 0 N 1010,2 30 -
14.07.2019 02:00:00 25,8 20,8 9 5 SW 1010,0 30 -
14.07.2019 01:00:00 25,8 13,0 9 5 SSW 1010,0 30 -
14.07.2019 00:00:00 26,6 11,9 9 5 SSW 1009,7 30 -
13.07.2019 23:00:00 26,8 12,1 5 3 S 1009,1 20 -
13.07.2019 22:00:00 27,0 12,6 9 5 SSW 1008,5 25 -
13.07.2019 21:00:00 27,0 11,9 9 5 SSW 1008,1 25 12
13.07.2019 20:00:00 27,8 13,7 8 4 S 1008,0 20 60
13.07.2019 19:00:00 27,6 13,9 11 6 S 1008,0 20 60
13.07.2019 18:00:00 27,6 18,6 8 4 S 1008,4 20 60
13.07.2019 17:00:00 26,4 19,3 11 6 S 1008,8 20 60
13.07.2019 16:00:00 26,6 20,7 11 6 S 1008,9 20 60
13.07.2019 15:00:00 27,4 20,7 13 7 S 1008,8 20 60
13.07.2019 14:00:00 27,0 21,3 11 6 S 1008,9 20 60
13.07.2019 13:00:00 26,4 21,0 11 6 S 1009,1 20 60
13.07.2019 12:00:00 26,8 20,9 5 3 NNE 1008,8 20 60
13.07.2019 11:00:00 26,8 20,4 5 3 NNE 1008,6 20 60
13.07.2019 10:00:00 25,6 20,2 8 4 NE 1008,7 20 60
13.07.2019 09:00:00 24,4 19,7 8 4 NE 1008,8 20 60
13.07.2019 08:00:00 22,4 20,0 11 6 NE 1008,7 20 24
13.07.2019 07:00:00 21,6 19,7 11 6 NNE 1008,8 20 -
13.07.2019 06:00:00 21,8 20,6 0 0 N 1009,2 20 -
13.07.2019 05:00:00 22,0 20,7 0 0 N 1009,4 10 -
13.07.2019 04:00:00 22,0 21,0 0 0 N 1009,4 10 -
13.07.2019 03:00:00 23,0 22,3 0 0 N 1009,7 10 -
13.07.2019 02:00:00 23,0 21,3 0 0 N 1010,3 10 -
13.07.2019 01:00:00 23,0 19,8 0 0 N 1010,4 20 -
13.07.2019 00:00:00 23,0 21,1 0 0 N 1010,4 20 -
12.07.2019 23:00:00 23,4 22,4 13 7 WSW 1010,2 20 -
12.07.2019 22:00:00 23,6 21,3 28 15 WSW 1009,8 20 -
12.07.2019 21:00:00 24,0 21,3 18 10 W 1009,8 20 6
12.07.2019 20:00:00 25,8 21,7 22 12 SW 1010,1 25 60
12.07.2019 19:00:00 26,0 21,4 18 10 SW 1010,1 25 60
12.07.2019 18:00:00 27,0 22,2 18 10 SW 1010,1 20 60
12.07.2019 17:00:00 27,4 21,9 18 10 SSW 1010,9 20 60
12.07.2019 16:00:00 26,8 21,5 15 8 SSW 1011,1 30 60
12.07.2019 15:00:00 27,8 22,1 15 8 ENE 1011,0 30 60
12.07.2019 14:00:00 29,8 22,0 18 10 NE 1010,8 20 60
12.07.2019 13:00:00 29,6 20,7 15 8 NE 1010,8 20 60
12.07.2019 12:00:00 29,4 20,5 15 8 NE 1010,8 20 60
12.07.2019 11:00:00 27,2 19,8 15 8 NNE 1011,7 20 60
12.07.2019 10:00:00 25,0 18,9 9 5 NNE 1012,1 20 60
12.07.2019 09:00:00 24,2 18,6 5 3 NNE 1012,0 25 60
12.07.2019 08:00:00 23,8 19,3 0 0 N 1011,2 30 42
12.07.2019 07:00:00 22,4 19,6 5 3 N 1012,2 20 0
12.07.2019 06:00:00 22,0 19,0 4 2 N 1012,2 20 0
12.07.2019 05:00:00 22,2 19,6 0 0 N 1011,4 20 -
12.07.2019 04:00:00 22,6 20,0 0 0 N 1012,2 30 -
12.07.2019 03:00:00 22,8 19,8 0 0 N 1012,2 20 -
12.07.2019 02:00:00 23,0 19,6 0 0 N 1012,3 20 -
12.07.2019 01:00:00 23,2 19,8 0 0 N 1012,3 20 -
12.07.2019 00:00:00 23,0 19,4 0 0 N 1012,3 30 -
11.07.2019 23:00:00 23,2 19,8 0 0 N 1012,2 20 -
11.07.2019 22:00:00 23,6 20,3 0 0 N 1011,6 20 -
11.07.2019 21:00:00 24,0 20,9 0 0 N 1011,3 20 0
11.07.2019 20:00:00 24,2 20,1 11 6 SSE 1011,3 30 18
11.07.2019 19:00:00 24,2 19,9 15 8 SSE 1011,3 20 0
11.07.2019 18:00:00 24,6 19,7 15 8 ESE 1012,0 20 0
11.07.2019 17:00:00 25,4 20,2 15 8 NNE 1012,1 20 0
11.07.2019 16:00:00 26,2 20,1 18 10 ENE 1012,2 20 18
11.07.2019 15:00:00 26,0 19,2 22 12 NNE 1012,4 20 0
11.07.2019 14:00:00 26,4 19,5 28 15 ENE 1012,7 20 6
11.07.2019 13:00:00 26,0 21,4 18 10 ENE 1013,1 20 12
11.07.2019 12:00:00 27,0 21,3 22 12 ENE 1012,9 20 18
11.07.2019 11:00:00 26,0 20,6 9 5 NE 1013,0 20 12
11.07.2019 10:00:00 25,0 20,5 0 0 N 1013,1 20 18
11.07.2019 09:00:00 24,0 19,7 0 0 N 1012,9 20 12
11.07.2019 08:00:00 23,6 19,1 0 0 N 1012,3 20 0
11.07.2019 07:00:00 23,6 19,3 0 0 N 1012,1 20 -

tt = temperature
td = dewpoint
ff = wind speed
dd = wind direction
ppp = reduced air pressure
vv = visibility
sd = sunshine duration

Next stations